SV1DOD Weather Reports


time (UTC)temp
F
wind
direction
speed
knots
gust
knots
rain 1hr
in
rain 24hr
in
rain mn
in
humidity
%
barometer
mb
20260508074518 63 34 0.9 3.5 0.00 0.00 0.00 76 1016.8
20260508073538 63 23 2.6 4.3 0.00 0.00 0.00 76 1016.4
20260508072516 64 46 1.7 2.6 0.00 0.00 0.00 76 1016.7
20260508071538 63 89 0.0 2.6 0.00 0.00 0.00 76 1016.5
20260508070516 63 135 1.7 5.2 0.00 0.00 0.00 76 1016.9
20260508065518 63 80 1.7 4.3 0.00 0.00 0.00 76 1017.0
20260508064518 62 109 0.9 2.6 0.00 0.00 0.00 76 1017.1
20260508063517 62 149 1.7 6.1 0.00 0.00 0.00 76 1017.2
20260508062516 62 161 1.7 7.8 0.00 0.00 0.00 76 1017.1
20260508061516 62 149 1.7 4.3 0.00 0.00 0.00 76 1016.9
20260508060518 62 180 1.7 7.0 0.00 0.00 0.00 76 1017.3
20260508055516 62 179 1.7 6.1 0.00 0.00 0.00 76 1017.6
20260508054516 61 217 1.7 5.2 0.00 0.00 0.00 76 1018.0
20260508053516 61 174 1.7 5.2 0.00 0.00 0.00 76 1018.1
20260508052558 61 266 3.5 6.1 0.00 0.00 0.00 76 1018.2
20260508051518 61 311 0.9 3.5 0.00 0.00 0.00 76 1017.5
20260508050518 61 238 1.7 3.5 0.00 0.00 0.00 76 1017.6
20260508045516 60 231 2.6 5.2 0.00 0.00 0.00 76 1017.3
20260508044538 60 243 3.5 6.1 0.00 0.00 0.00 76 1016.9
20260508043516 60 200 4.3 7.8 0.00 0.00 0.00 76 1016.4
20260508042519 60 194 2.6 4.3 0.00 0.00 0.00 76 1016.0
20260508041518 60 165 0.9 2.6 0.00 0.00 0.00 75 1015.7
20260508040516 60 185 1.7 3.5 0.00 0.00 0.00 75 1015.7
20260508035516 59 186 1.7 4.3 0.00 0.00 0.00 76 1015.7
20260508034517 60 204 1.7 3.5 0.00 0.00 0.00 75 1015.6
20260508033538 60 204 1.7 3.5 0.00 0.00 0.00 75 1015.5
20260508032516 60 182 0.9 2.6 0.00 0.00 0.00 75 1015.4
20260508031516 60 181 0.0 2.6 0.00 0.00 0.00 75 1015.4
20260508030516 60 181 0.9 2.6 0.00 0.00 0.00 76 1015.3
20260508025538 60 181 0.0 0.9 0.00 0.00 0.00 76 1015.3
20260508024516 60 181 0.9 1.7 0.00 0.00 0.00 75 1015.4
20260508023516 60 182 1.7 3.5 0.00 0.00 0.00 76 1015.4
20260508022537 60 183 1.7 3.5 0.00 0.00 0.00 76 1015.4
20260508021518 60 181 0.9 3.5 0.00 0.00 0.00 76 1015.4
20260508020518 60 193 1.7 3.5 0.00 0.00 0.00 76 1015.6
20260508015516 61 180 0.9 2.6 0.00 0.00 0.00 76 1015.7
20260508014518 61 176 0.9 2.6 0.00 0.00 0.00 76 1015.7
20260508013537 61 175 0.9 2.6 0.00 0.00 0.00 76 1015.6
20260508012516 61 174 0.0 1.7 0.00 0.00 0.00 76 1015.7
20260508011516 61 178 0.0 1.7 0.00 0.00 0.00 76 1015.5
20260508010516 62 171 0.9 1.7 0.00 0.00 0.00 76 1015.6
20260508005516 61 0.0 0.9 0.00 0.00 0.00 76 1015.6
20260508004516 61 176 0.0 1.7 0.00 0.00 0.00 76 1015.8
20260508003538 61 176 0.9 2.6 0.00 0.00 0.00 76 1016.0
20260508002516 62 176 0.0 1.7 0.00 0.00 0.00 76 1016.2
20260508001518 62 177 0.0 0.9 0.00 0.00 0.00 76 1016.2
20260508000516 62 0.0 0.0 0.00 0.00 0.00 76 1016.5
20260507235516 61 0.0 0.0 0.00 0.00 0.00 76 1016.6
20260507234516 61 178 0.0 1.7 0.00 0.00 0.00 76 1016.7
20260507233516 62 178 0.9 2.6 0.00 0.00 0.00 76 1016.8
20260507232518 62 176 0.0 1.7 0.00 0.00 0.00 76 1016.7
20260507231537 62 176 0.0 0.9 0.00 0.00 0.00 76 1016.8
20260507230556 62 176 0.9 1.7 0.00 0.00 0.00 76 1017.0
20260507225516 62 176 0.0 0.9 0.00 0.00 0.00 76 1016.8
20260507224516 62 176 0.0 2.6 0.00 0.00 0.00 76 1016.9
20260507223517 62 182 0.9 3.5 0.00 0.00 0.00 76 1017.1
20260507222518 62 203 0.9 3.5 0.00 0.00 0.00 76 1017.0
20260507221536 62 213 0.0 0.9 0.00 0.00 0.00 76 1017.0
20260507220536 62 214 0.0 0.9 0.00 0.00 0.00 76 1017.0
20260507215517 62 214 0.0 0.9 0.00 0.00 0.00 76 1017.1
20260507214517 62 216 0.0 1.7 0.00 0.00 0.00 76 1017.1
20260507213516 62 213 0.0 2.6 0.00 0.00 0.00 76 1017.2
20260507212516 62 219 0.0 2.6 0.00 0.00 0.00 76 1017.2
20260507211516 63 229 1.7 3.5 0.00 0.00 0.00 76 1017.4
20260507210517 63 211 0.9 3.5 0.00 0.00 0.00 76 1017.4
20260507205516 63 208 1.7 4.3 0.00 0.00 0.00 76 1017.6
20260507204535 63 223 2.6 4.3 0.00 0.00 0.00 76 1017.7
20260507203515 63 268 2.6 3.5 0.00 0.00 0.00 76 1017.5
20260507202516 63 354 2.6 4.3 0.00 0.00 0.00 76 1017.5
20260507201515 63 0 2.6 7.0 0.00 0.00 0.00 76 1017.6
20260507200515 64 359 2.6 4.3 0.00 0.00 0.00 76 1017.5
20260507195515 64 359 2.6 4.3 0.00 0.00 0.00 75 1017.3
20260507194515 65 360 1.7 3.5 0.00 0.00 0.00 74 1017.3
20260507193515 65 358 0.9 2.6 0.00 0.00 0.00 73 1017.3
20260507192515 65 0 0.0 0.9 0.00 0.00 0.00 73 1017.3
20260507191535 66 0 0.0 2.6 0.00 0.00 0.00 72 1017.2
20260507190537 66 356 0.9 3.5 0.00 0.00 0.00 72 1017.1
20260507185517 66 10 0.9 3.5 0.00 0.00 0.00 72 1016.9
20260507184515 66 0 0.9 5.2 0.00 0.00 0.00 72 1016.7
20260507183517 66 0 0.0 2.6 0.00 0.00 0.00 71 1016.5
20260507182516 66 0 0.0 0.9 0.00 0.00 0.00 71 1016.4
20260507181515 66 360 0.9 1.7 0.00 0.00 0.00 71 1016.5
20260507180515 67 354 0.9 2.6 0.00 0.00 0.00 70 1016.4
20260507175516 67 0 0.0 0.9 0.00 0.00 0.00 70 1016.3
20260507174515 67 6 0.9 3.5 0.00 0.00 0.00 69 1016.5
20260507173515 68 2 0.9 2.6 0.00 0.00 0.00 69 1016.4
20260507172515 68 0 1.7 5.2 0.00 0.00 0.00 68 1016.5
20260507171516 68 0 0.9 3.5 0.00 0.00 0.00 69 1016.5
20260507170538 68 0 1.7 3.5 0.00 0.00 0.00 69 1016.6
20260507165515 69 0 1.7 5.2 0.00 0.00 0.00 68 1016.5
20260507164517 69 0 1.7 4.3 0.00 0.00 0.00 68 1016.5
20260507163515 70 0 1.7 4.3 0.00 0.00 0.00 67 1016.4
20260507162536 70 0 2.6 7.0 0.00 0.00 0.00 66 1016.3
20260507161516 70 0 2.6 8.7 0.00 0.00 0.00 66 1016.3
20260507160537 70 0 4.3 8.7 0.00 0.00 0.00 66 1016.2
20260507155515 71 0 2.6 7.8 0.00 0.00 0.00 65 1016.1
20260507154515 72 0 6.1 10.4 0.00 0.00 0.00 63 1016.1
20260507153515 72 31 3.5 13.9 0.00 0.00 0.00 61 1016.3
20260507152515 73 42 8.7 13.9 0.00 0.00 0.00 60 1016.0
20260507151518 73 2 8.7 16.5 0.00 0.00 0.00 58 1016.0
20260507150518 74 30 2.6 12.2 0.00 0.00 0.00 58 1016.2
20260507145519 74 16 3.5 8.7 0.00 0.00 0.00 57 1016.0
20260507144515 75 360 3.5 7.8 0.00 0.00 0.00 55 1016.2
20260507143515 75 17 3.5 8.7 0.00 0.00 0.00 53 1016.2
20260507142515 75 15 2.6 7.8 0.00 0.00 0.00 53 1016.3
20260507141516 76 9 2.6 7.8 0.00 0.00 0.00 52 1016.4
20260507140516 76 60 3.5 7.8 0.00 0.00 0.00 50 1016.1
20260507135518 76 19 2.6 7.0 0.00 0.00 0.00 49 1016.3
20260507134517 77 17 3.5 8.7 0.00 0.00 0.00 48 1016.3
20260507133516 77 14 2.6 7.0 0.00 0.00 0.00 46 1016.3
20260507132515 77 7 2.6 5.2 0.00 0.00 0.00 45 1016.1
20260507131516 77 37 3.5 7.0 0.00 0.00 0.00 45 1016.3
20260507130515 77 42 2.6 7.0 0.00 0.00 0.00 45 1016.3
20260507125518 76 4 1.7 5.2 0.00 0.00 0.00 47 1016.5
20260507124516 75 15 2.6 7.0 0.00 0.00 0.00 50 1016.7
20260507123516 75 359 1.7 3.5 0.00 0.00 0.00 52 1016.8
20260507122517 74 18 1.7 4.3 0.00 0.00 0.00 50 1016.8
20260507121515 74 2 1.7 5.2 0.00 0.00 0.00 46 1016.9
20260507120515 75 22 2.6 5.2 0.00 0.00 0.00 45 1017.0
20260507115517 75 10 1.7 7.8 0.00 0.00 0.00 44 1017.0
20260507114538 75 17 2.6 7.0 0.00 0.00 0.00 45 1017.0
20260507113516 74 24 2.6 6.1 0.00 0.00 0.00 46 1017.1
20260507112516 74 38 0.9 4.3 0.00 0.00 0.00 47 1017.2
20260507111517 73 38 2.6 4.3 0.00 0.00 0.00 44 1017.4
20260507110515 73 357 1.7 3.5 0.00 0.00 0.00 48 1017.5
20260507105518 74 7 0.9 3.5 0.00 0.00 0.00 48 1017.5
20260507104518 74 26 3.5 5.2 0.00 0.00 0.00 45 1017.4
20260507103518 74 16 1.7 4.3 0.00 0.00 0.00 47 1017.2
20260507102537 73 1 2.6 7.8 0.00 0.00 0.00 50 1017.1
20260507101517 73 10 2.6 7.0 0.00 0.00 0.00 55 1017.0
20260507100515 73 344 1.7 4.3 0.00 0.00 0.00 58 1017.2
20260507095516 72 355 0.9 2.6 0.00 0.00 0.00 58 1017.2
20260507094515 71 0 0.9 2.6 0.00 0.00 0.00 63 1017.2
20260507093515 70 27 0.9 3.5 0.00 0.00 0.00 64 1017.4
20260507092517 70 13 0.9 3.5 0.00 0.00 0.00 64 1017.4
20260507091518 70 11 1.7 3.5 0.00 0.00 0.00 63 1017.3
20260507090538 70 10 1.7 5.2 0.00 0.00 0.00 63 1017.2
20260507085515 70 311 0.9 4.3 0.00 0.00 0.00 63 1017.0
20260507084515 71 347 1.7 4.3 0.00 0.00 0.00 62 1016.9
20260507083518 71 352 1.7 4.3 0.00 0.00 0.00 63 1017.0
20260507082517 70 39 1.7 4.3 0.00 0.00 0.00 63 1016.9
20260507081517 70 336 0.9 2.6 0.00 0.00 0.00 64 1017.0
20260507080517 69 350 0.9 3.5 0.00 0.00 0.00 64 1016.9
20260507075537 68 334 1.7 4.3 0.00 0.00 0.00 65 1017.0